Home > Weather > Ashdod > Past weeks

Flag for Israel Past Weather in Ashdod, Israel — Yesterday and Last 2 Weeks

Now
88 °F

Sunny.


Feels Like: 94 °F
Forecast: 77 / 87 °F
Wind: 3 mph from North

Location: Ben Gurion International Airport

Current Time: Jun 26, 2016 at 11:17:35 AM

Latest Report: Jun 26, 2016 at 10:20 AM


Visibility: 10 mi

Pressure: 29.83 "Hg

Humidity: 59%

Dew Point: 72 °F

Location of AshdodLocation

Past Weather in Ashdod — Graph

°F

Ashdod Temperature Yesterday

Maximum temperature yesterday: 91 °F (at 12:20 PM)
Minimum temperature yesterday: 73 °F (at 4:50 AM)
Average temperature yesterday: 82 °F

High & Low Weather Summary for the Past Weeks

 TemperatureHumidityPressure
High97 °F (Jun 14, 3:50 PM)94% (Jun 20, 4:20 AM)30.01 "Hg (Jun 20, 4:20 AM)
Low66 °F (Jun 13, 6:20 AM)20% (Jun 14, 4:50 PM)29.68 "Hg (Jun 24, 3:20 PM)
Average81 °F61%29.79 "Hg
* Reported Jun 11 10:20 AM — Jun 26 10:20 AM, Ashdod, Weather by CustomWeather, © 2016

Note: Actual official high and low records may vary slightly from our data, if they occured in-between our weather recording intervals... More about our weather records

Advertising

Ashdod Weather History for the Previous 24 Hours

Scroll right to see more
 ConditionsComfort  
Time TempWeatherWind HumidityBarometerVisibility
10:20 AM
Sun, Jun 26
88 °FSunny.3 mph59%29.83 "Hg10 mi
9:50 AM86 °FSunny.2 mph62%29.83 "Hg10 mi
9:20 AM82 °FPassing clouds.6 mph70%29.83 "HgN/A
8:50 AM82 °FScattered clouds.3 mph70%29.83 "HgN/A
8:20 AM81 °FScattered clouds.6 mph74%29.83 "HgN/A
7:50 AM79 °FScattered clouds.7 mph79%29.83 "Hg6 mi
7:20 AM79 °FScattered clouds.9 mph79%29.83 "Hg5 mi
6:50 AM79 °FScattered clouds.6 mph79%29.83 "Hg4 mi
6:20 AM77 °FFog.6 mph83%29.80 "Hg3 mi
5:50 AM77 °FFog.7 mph83%29.80 "Hg3 mi
5:20 AM77 °FPassing clouds.6 mph83%29.80 "Hg4 mi
4:50 AM77 °FPassing clouds.6 mph83%29.80 "Hg5 mi
4:20 AM77 °FPassing clouds.6 mph83%29.80 "Hg5 mi
3:50 AM77 °FPassing clouds.6 mph89%29.80 "Hg5 mi
3:20 AM77 °FPassing clouds.3 mph89%29.80 "Hg6 mi
2:50 AM77 °FPassing clouds.5 mph89%29.77 "Hg6 mi
2:20 AM77 °FClear.3 mph83%29.77 "Hg10 mi
1:50 AM77 °FClear.2 mph83%29.77 "Hg10 mi
1:20 AM77 °FClear.2 mph83%29.77 "Hg10 mi
12:50 AM79 °FClear.1 mph79%29.77 "Hg10 mi
12:20 AM79 °FClear.1 mph84%29.77 "Hg10 mi
11:50 PM
Sat, Jun 25
79 °FClear.2 mph84%29.77 "Hg10 mi
11:20 PM81 °FClear.2 mph79%29.80 "Hg10 mi
10:50 PM81 °FClear.3 mph79%29.80 "Hg10 mi
10:20 PM81 °FClear.3 mph79%29.80 "Hg10 mi
9:50 PM81 °FClear.5 mph79%29.77 "Hg10 mi
9:20 PM81 °FClear.5 mph74%29.77 "Hg10 mi
8:50 PM81 °FClear.6 mph79%29.77 "Hg10 mi
8:20 PM82 °FSunny.6 mph70%29.77 "Hg10 mi
7:50 PM84 °FSunny.7 mph62%29.77 "Hg10 mi
7:20 PM86 °FSunny.8 mph59%29.74 "Hg10 mi
6:50 PM86 °FSunny.8 mph66%29.74 "Hg10 mi
6:20 PM86 °FSunny.8 mph62%29.74 "Hg10 mi
5:50 PM88 °FSunny.9 mph62%29.74 "Hg10 mi
5:20 PM88 °FPassing clouds.9 mph59%29.74 "HgN/A
4:50 PM88 °FSunny.9 mph59%29.74 "Hg10 mi
4:20 PM88 °FPassing clouds.12 mph59%29.74 "HgN/A
3:50 PM88 °FPassing clouds.14 mph62%29.74 "HgN/A
3:20 PM90 °FPassing clouds.14 mph52%29.74 "HgN/A
2:50 PM91 °FSunny.13 mph49%29.74 "Hg10 mi
2:20 PM91 °FSunny.12 mph44%29.74 "Hg10 mi
1:50 PM91 °FSunny.12 mph46%29.74 "Hg10 mi
1:20 PM91 °FSunny.10 mph46%29.74 "Hg10 mi
12:50 PM91 °FSunny.9 mph49%29.74 "Hg10 mi
12:20 PM91 °FSunny.8 mph52%29.74 "Hg10 mi
11:50 AM90 °FSunny.8 mph55%29.74 "Hg10 mi
11:20 AM90 °FSunny.5 mph55%29.74 "Hg10 mi
Weather by CustomWeather, © 2016

See weather overviewHow to use our weather pages